User: anonymous   Login
Location: Plymouth
(43.7570°N, 71.6890°W)
Time: 08:10:07
(UTC-04:00)
Language:

Cosmos 2016 Rocket - Orbit

View from above orbital plane
View from above orbital plane
View from above satellite
View from above satellite

Ground track
Ground track

The orbit data is extracted from the following two-line orbital elements,

1 19922U 89028B   16209.87262491 +.00000021 +00000-0 +52423-5 0  9991
2 19922 082.9613 307.3612 0037855 074.9304 064.1390 13.77178950372330
Epoch (UTC): 27 July 2016 20:56:34
Eccentricity: 0.0037855
inclination: 82.9613°
perigee height: 946 km
apogee height: 1002 km
right ascension of ascending node: 307.3612°
argument of perigee: 74.9304°
revolutions per day: 13.77178950
mean anomaly at epoch: 64.1390°
orbit number at epoch: 37233

The dashed part of the orbit path shows where the satellite is in the earth's shadow,  

DLR